Location: Innerarity Island Observatory
(30.3139°N, 87.4867°W)
Time: 05:26:38
(UTC-05:00)

FO-29 - Visible Passes

Search period start: 28 May 2017 00:00
Search period end: 07 June 2017 00:00
Orbit: 800 x 1322 km, 98.6° (Epoch: 27 May)

Date Brightness Start Highest point End Pass type
(mag) Time Alt. Az. Time Alt. Az. Time Alt. Az.
28 May 11.7 00:23:25 10° NNW 00:27:58 19° WNW 00:29:34 18° W visible
28 May 11.1 21:42:57 10° NE 21:47:29 23° E 21:47:29 23° E visible
28 May 10.4 23:26:49 10° N 23:33:22 53° WNW 23:33:59 51° W visible
29 May 9.9 22:31:41 10° NNE 22:38:23 61° E 22:38:23 61° E visible
30 May 11.6 00:18:09 10° NNW 00:23:04 21° WNW 00:24:53 19° W visible
30 May 11.1 21:38:07 10° NE 21:42:48 22° E 21:42:48 22° E visible
30 May 10.3 23:21:44 10° N 23:28:28 57° WNW 23:29:17 54° W visible
31 May 10.0 22:26:42 10° NNE 22:33:36 57° E 22:33:42 57° ESE visible
01 Jun 11.6 00:12:56 10° NNW 00:18:12 23° WNW 00:20:11 21° W visible
01 Jun 11.2 21:33:18 10° NE 21:38:06 21° E 21:38:06 21° E visible
01 Jun 10.2 23:16:41 10° N 23:23:35 62° WNW 23:24:36 57° WSW visible
02 Jun 10.1 22:21:45 10° NNE 22:28:42 53° E 22:29:00 53° ESE visible
03 Jun 11.5 00:07:46 10° NNW 00:13:19 26° WNW 00:15:29 22° W visible
03 Jun 11.3 21:28:32 10° NE 21:33:24 20° E 21:33:24 20° E visible
03 Jun 10.2 23:11:39 10° N 23:18:42 66° WNW 23:19:54 58° WSW visible
04 Jun 10.2 22:16:49 10° NNE 22:23:50 50° E 22:24:17 49° ESE visible
05 Jun 11.5 00:02:37 10° NNW 00:08:27 28° WNW 00:10:47 24° W visible
05 Jun 11.3 21:23:48 10° NE 21:28:39 18° E 21:28:41 18° E visible
05 Jun 10.1 23:06:38 10° N 23:13:50 71° WNW 23:15:10 60° SW visible
06 Jun 12.4 00:57:08 10° NW 00:57:49 10° WNW 00:58:30 10° WNW visible
06 Jun 10.3 22:11:54 10° NNE 22:18:56 47° E 22:19:34 46° ESE visible
